Regional Weather Roundup
Issued by NWS

Home | Current Version | Previous Version | Graphics & Text | Print | Product List | Glossary On
Versions: 1 2 3 4 5 6 7 8 9 10 11 12 13 14 15 16 17 18 19 20 21 22 23 24 25 26 27 28 29 30 31 32 33 34 35 36 37 38 39 40 41 42 43 44 45 46 47 48 49 50
000
ASUS45 KCYS 281510
RWRWY

WYOMING REGIONAL WEATHER ROUNDUP
NATIONAL WEATHER SERVICE CHEYENNE WY
800 AM MST SAT FEB 28 2015

NOTE:  "FAIR" INDICATES FEW OR NO CLOUDS BELOW 12,000 FEET
WITH NO SIGNIFICANT WEATHER AND/OR OBSTRUCTIONS TO VISIBILITY.

WYZ001-281600-
YELLOWSTONE NATIONAL PARK

CITY           SKY/WX    TMP DP  RH WIND       PRES   REMARKS
LK YELLOWSTONE   N/A     -8 -12  83 CALM      29.80R
W YELLOWSTONE  NOT AVBL

$$
WYZ002>013-054>058-071-098>099-281600-
NORTHERN WYOMING

CITY           SKY/WX    TMP DP  RH WIND       PRES   REMARKS
JACKSON        CLOUDY     9   7  92 N12       29.81R WCI  -6
CODY           CLOUDY    10  10 100 N8        30.00R WCI  -1
GREYBULL       CLOUDY    18   8  65 N6        30.05R WCI  10
WORLAND        CLOUDY    17   9  70 CALM      30.04R
SHERIDAN       CLOUDY    15   8  73 NW6       30.09R WCI   6
BUFFALO        FAIR       8   2  76 CALM      30.03R
GILLETTE       CLOUDY    10   5  80 W9        30.06R WCI  -3
HULETT         CLOUDY    12   5  73 W7        30.07R WCI   2
NEWCASTLE      FAIR      12   7  79 NW7       30.06R WCI   2

$$
WYZ014>020-022>026-101>103-281600-
CENTRAL WYOMING

CITY           SKY/WX    TMP DP  RH WIND       PRES   REMARKS
BIG PINEY      CLOUDY    15  12  88 CALM      29.80R
PINEDALE       LGT SNOW  14  12  92 CALM      29.79S
DUBOIS         SNOW       9   3  78 CALM      29.83R VSB 1/2
LANDER         LGT SNOW  15  10  80 N5        29.92R WCI   8
RIVERTON       CLOUDY    15  10  80 NE8       29.94R WCI   4
CASPER         LGT SNOW  11   5  77 NE13      29.98R WCI  -4
DOUGLAS        CLOUDY    12   8  84 N6        30.03R WCI   3

$$
WYZ021-027>030-104>119-281600-
SOUTHERN WYOMING

CITY           SKY/WX    TMP DP  RH WIND       PRES   REMARKS
EVANSTON       FAIR      15  12  88 E25G31    29.69R WCI  -4
FORT BRIDGER   PTSUNNY   13  12  95 NE8       29.76S WCI   1
ROCK SPRINGS   CLOUDY    14   9  80 E9        29.79R WCI   2
DIXON          CLOUDY    20   9  62 E9        29.82R WCI   9
RAWLINS        CLOUDY    12   5  73 E7        29.84R WCI   1
SARATOGA       CLOUDY     9   3  78 CALM      29.83R
LARAMIE        FAIR       6  -1  73 CALM      29.81R
CHEYENNE       FAIR      12   5  73 N10       29.90R WCI  -1
TORRINGTON     PTSUNNY   10   4  76 NW5       30.04R WCI   2
PINE BLUFFS    PTSUNNY    5   1  85 CALM      29.96R

$$



USA.gov is the U.S. government's official web portal to all federal, state and local government web resources and services.